2023/06/22 00:00:00, 0.0,18.5
2023/06/22 00:10:00,33.4,18.3
2023/06/22 00:20:00,33.4,18.5
2023/06/22 00:30:00, 0.0,18.3
2023/06/22 00:40:00,---,18.4
2023/06/22 00:50:00,---,18.4
2023/06/22 01:00:00,15.1,18.4
2023/06/22 01:10:00,---,18.6
2023/06/22 01:20:00, 0.0,18.6
2023/06/22 01:30:00,36.8,18.5
2023/06/22 01:40:00,37.1,18.2
2023/06/22 01:50:00,37.1,18.0
2023/06/22 02:00:00, 0.0,18.0
2023/06/22 02:10:00,---,17.9
2023/06/22 02:20:00,13.6,17.6
2023/06/22 02:30:00,13.4,17.4
2023/06/22 02:40:00,---,17.6
2023/06/22 02:50:00,---,17.5
2023/06/22 03:00:00, 0.0,17.8
2023/06/22 03:10:00,35.3,17.5
2023/06/22 03:20:00,---,17.4
2023/06/22 03:30:00,---,17.4
2023/06/22 03:40:00,---,17.4
2023/06/22 03:50:00,---,17.4
2023/06/22 04:00:00,---,17.4
2023/06/22 04:10:00,---,17.3
2023/06/22 04:20:00,87.6,17.4
2023/06/22 04:30:00, 0.0,17.1
2023/06/22 04:40:00, 0.0,16.9
2023/06/22 04:50:00,---,17.2
2023/06/22 05:00:00, 0.0,16.7
2023/06/22 05:10:00, 0.0,16.8
2023/06/22 05:20:00, 0.0,16.9
2023/06/22 05:30:00, 0.0,16.9
2023/06/22 05:40:00, 0.0,16.8
2023/06/22 05:50:00, 0.0,16.9
2023/06/22 06:00:00, 0.0,17.8
2023/06/22 06:10:00, 0.0,17.7
2023/06/22 06:20:00, 0.0,17.9
2023/06/22 06:30:00,---,18.2
2023/06/22 06:40:00,21.5,18.0
2023/06/22 06:50:00, 0.0,18.1
2023/06/22 07:00:00,38.9,18.1
2023/06/22 07:10:00,162.4,18.5
2023/06/22 07:20:00,---,18.4
2023/06/22 07:30:00,---,18.3
2023/06/22 07:40:00,162.8,17.9
2023/06/22 07:50:00,---,17.9
2023/06/22 08:00:00, 0.0,17.3
2023/06/22 08:10:00, 0.0,18.0
2023/06/22 08:20:00, 0.0,17.5
2023/06/22 08:30:00,50.8,17.7
2023/06/22 08:40:00,---,17.9
2023/06/22 08:50:00,---,17.7
2023/06/22 09:00:00,---,18.2
2023/06/22 09:10:00,---,18.6
2023/06/22 09:20:00,---,18.9
2023/06/22 09:30:00,---,18.7
2023/06/22 09:40:00,---,18.6
2023/06/22 09:50:00,161.7,18.7
2023/06/22 10:00:00,161.2,19.0
2023/06/22 10:10:00,161.1,18.9
2023/06/22 10:20:00,161.4,19.3
2023/06/22 10:30:00,161.4,18.7
2023/06/22 10:40:00,161.4,18.5
2023/06/22 10:50:00,161.6,18.7
2023/06/22 11:00:00,161.5,18.4
2023/06/22 11:10:00,161.3,19.0
2023/06/22 11:20:00,161.6,19.5
2023/06/22 11:30:00,161.9,19.5
2023/06/22 11:40:00,162.6,20.1
2023/06/22 11:50:00,162.7,20.3
2023/06/22 12:00:00,162.6,20.2
2023/06/22 12:10:00,161.9,20.2
2023/06/22 12:20:00,162.3,19.6
2023/06/22 12:30:00,161.4,20.0
2023/06/22 12:40:00,161.4,20.0
2023/06/22 12:50:00,161.6,19.8
2023/06/22 13:00:00,161.6,19.4
2023/06/22 13:10:00,161.6,19.8
2023/06/22 13:20:00,161.6,19.8
2023/06/22 13:30:00,161.9,20.2
2023/06/22 13:40:00,161.9,20.7
2023/06/22 13:50:00,161.9,21.7
2023/06/22 14:00:00,162.1,21.5
2023/06/22 14:10:00,162.0,20.6
2023/06/22 14:20:00,162.0,21.2
2023/06/22 14:30:00,160.8,22.2
2023/06/22 14:40:00,159.5,23.4
2023/06/22 14:50:00,160.0,23.7
2023/06/22 15:00:00,160.3,23.5
2023/06/22 15:10:00,160.7,23.5
2023/06/22 15:20:00,160.4,23.5
2023/06/22 15:30:00,160.3,24.2
2023/06/22 15:40:00,160.5,23.2
2023/06/22 15:50:00,160.5,22.3
2023/06/22 16:00:00,---,22.1
2023/06/22 16:10:00,100.3,22.2
2023/06/22 16:20:00,141.8,21.8
2023/06/22 16:30:00,160.2,21.5
2023/06/22 16:40:00,137.2,21.2
2023/06/22 16:50:00,143.3,21.2
2023/06/22 17:00:00,142.7,21.6
2023/06/22 17:10:00,140.6,21.0
2023/06/22 17:20:00,133.6,20.4
2023/06/22 17:30:00,140.4,20.1
2023/06/22 17:40:00,140.4,19.5
2023/06/22 17:50:00,140.4,19.4
2023/06/22 18:00:00,140.4,19.6
2023/06/22 18:10:00,140.4,19.5
2023/06/22 18:20:00,140.4,19.3
2023/06/22 18:30:00,140.4,19.5
2023/06/22 18:40:00,140.4,19.0
2023/06/22 18:50:00,140.4,19.2
2023/06/22 19:00:00,140.4,19.1
2023/06/22 19:10:00,140.4,19.1
2023/06/22 19:20:00,140.4,19.1
2023/06/22 19:30:00,140.4,18.9
2023/06/22 19:40:00,140.4,18.6
2023/06/22 19:50:00,140.4,18.7
2023/06/22 20:00:00,140.4,18.8
2023/06/22 20:10:00, 0.0,18.7
2023/06/22 20:20:00, 0.0,18.6
2023/06/22 20:30:00, 0.0,18.8
2023/06/22 20:40:00, 0.0,18.7
2023/06/22 20:50:00, 0.0,18.7
2023/06/22 21:00:00, 0.0,18.5
2023/06/22 21:10:00, 0.0,18.2
2023/06/22 21:20:00, 0.0,18.5
2023/06/22 21:30:00, 0.0,18.1
2023/06/22 21:40:00, 0.0,18.3
2023/06/22 21:50:00, 0.0,18.1
2023/06/22 22:00:00, 0.0,18.2
2023/06/22 22:10:00,---,18.3
2023/06/22 22:20:00,161.6,18.3
2023/06/22 22:30:00,161.6,18.3
2023/06/22 22:40:00,161.6,17.9
2023/06/22 22:50:00,161.6,17.8
2023/06/22 23:00:00,161.6,18.1
2023/06/22 23:10:00,161.6,17.9
2023/06/22 23:20:00,161.6,17.4
2023/06/22 23:30:00,161.6,18.0
2023/06/22 23:40:00,161.6,17.4
2023/06/22 23:50:00,161.6,17.7
